FW8434 Weather Reports


time (UTC)temp
F
wind
direction
speed
knots
gust
knots
rain 1hr
in
rain 24hr
in
rain mn
in
humidity
%
barometer
mb
20260506103032 55 0 0.0 0.0 0.00 0.00 0.00 90 1016.3
20260506101528 55 0 0.0 0.9 0.00 0.00 0.00 90 1016.2
20260506100027 56 0 0.0 0.0 0.00 0.00 0.00 91 1016.1
20260506094528 56 0 0.0 0.0 0.00 0.00 0.00 91 1016.1
20260506093047 56 0 0.0 0.0 0.00 0.00 0.00 92 1016.1
20260506091528 56 0 0.0 0.0 0.00 0.00 0.00 92 1016.1
20260506090027 57 0 0.0 0.0 0.00 0.00 0.00 91 1016.1
20260506084527 57 0 0.0 0.0 0.00 0.00 0.00 91 1016.1
20260506083027 57 0 0.0 0.0 0.00 0.00 0.00 90 1015.9
20260506081528 57 0 0.0 0.0 0.00 0.00 0.00 90 1016.0
20260506073028 57 0 0.0 0.0 0.00 0.00 0.00 90 1015.6
20260506071528 57 0 0.0 0.0 0.00 0.00 0.00 90 1015.6
20260506061530 57 0 0.0 0.0 0.00 0.00 0.00 88 1015.4
20260506044527 58 0 0.0 0.9 0.00 0.00 0.00 89 1014.8
20260506043030 58 0 0.0 0.0 0.00 0.00 0.00 86 1014.8
20260506041530 58 0 0.0 0.0 0.00 0.00 0.00 85 1014.6
20260506040030 58 0 0.0 0.0 0.00 0.00 0.00 86 1014.4
20260506034528 59 0 0.0 0.0 0.00 0.00 0.00 86 1014.3
20260506033033 59 0 0.0 0.0 0.00 0.00 0.00 86 1014.1
20260506031530 59 0 0.0 0.0 0.00 0.00 0.00 85 1014.0
20260506030030 59 0 0.0 0.0 0.00 0.00 0.00 84 1013.9
20260506024529 59 0 0.0 0.0 0.00 0.00 0.00 83 1013.9
20260506023027 60 0 0.0 0.0 0.00 0.00 0.00 84 1013.7
20260506021530 60 0 0.0 0.0 0.00 0.00 0.00 83 1013.8
20260506020100 61 0 0.0 0.9 0.00 0.00 0.00 83 1013.8
20260506014528 61 266 0.0 0.9 0.00 0.00 0.00 81 1013.8
20260506013030 61 0 0.0 1.7 0.00 0.00 0.00 80 1013.7
20260506011528 61 277 0.0 1.7 0.00 0.00 0.00 79 1013.7
20260506010031 61 273 0.0 0.9 0.00 0.00 0.00 79 1013.6
20260506004527 61 316 0.0 1.7 0.00 0.00 0.00 77 1013.6
20260506003028 61 0 0.0 1.7 0.00 0.00 0.00 79 1013.6
20260506001528 61 234 0.0 1.7 0.00 0.00 0.00 78 1013.6
20260506000043 62 0 0.0 0.9 0.00 0.00 0.00 78 1013.9
20260505234532 62 312 0.0 1.7 0.00 0.00 0.00 79 1014.0
20260505233028 62 0 0.0 3.5 0.00 0.00 0.00 79 1013.9
20260505231530 62 197 0.9 2.6 0.00 0.00 0.00 77 1014.1
20260505230041 62 256 0.9 3.5 0.00 0.00 0.00 77 1013.9
20260505224528 62 224 0.0 2.6 0.00 0.00 0.00 76 1014.2
20260505223034 62 215 0.0 1.7 0.00 0.00 0.00 77 1014.3
20260505221529 63 288 0.0 2.6 0.00 0.00 0.00 76 1014.4
20260505220029 63 233 0.0 1.7 0.00 0.00 0.00 77 1014.3
20260505214530 63 0 0.9 2.6 0.00 0.00 0.00 73 1014.3
20260505213030 67 248 0.9 4.3 0.00 0.00 0.00 68 1014.6
20260505211536 65 191 0.0 1.7 0.00 0.00 0.00 73 1014.5
20260505210029 63 288 0.9 3.5 0.00 0.00 0.00 77 1014.6
20260505204529 62 286 0.0 1.7 0.00 0.00 0.00 76 1014.7
20260505203030 61 0 0.0 1.7 0.00 0.00 0.00 79 1014.6
20260505201531 61 0 0.0 1.7 0.00 0.00 0.00 78 1014.9
20260505200028 60 0 0.0 0.9 0.00 0.00 0.00 79 1014.8
20260505194529 59 227 0.0 2.6 0.00 0.00 0.00 81 1014.7
20260505193027 59 283 0.0 2.6 0.00 0.00 0.00 82 1015.0
20260505191533 59 271 0.0 0.9 0.00 0.00 0.00 82 1014.9
20260505190031 57 0 0.0 1.7 0.00 0.00 0.00 84 1014.8
20260505184537 57 242 0.0 0.9 0.00 0.00 0.00 86 1014.9
20260505183029 58 272 0.0 0.9 0.00 0.00 0.00 85 1014.9
20260505181532 57 0 0.0 0.0 0.00 0.00 0.00 84 1014.9
20260505180029 57 0 0.0 0.9 0.00 0.00 0.00 86 1014.7
20260505174536 57 0 0.0 0.9 0.00 0.00 0.00 85 1014.8
20260505173030 57 0 0.0 0.0 0.00 0.00 0.00 89 1014.6
20260505171536 56 108 0.0 0.9 0.00 0.00 0.00 87 1014.6
20260505170028 56 259 0.0 0.9 0.00 0.00 0.00 89 1014.5
20260505164530 56 178 0.0 0.9 0.00 0.00 0.00 89 1014.5
20260505163030 56 0 0.0 0.0 0.00 0.00 0.00 91 1014.4
20260505161530 55 0 0.0 0.9 0.00 0.00 0.00 92 1014.4
20260505153037 53 139 0.0 0.9 0.00 0.00 0.00 93 1014.2
20260505151527 53 242 0.0 0.9 0.00 0.00 0.00 93 1014.2
20260505124530 53 0 0.0 0.9 0.00 0.00 0.00 91 1013.2
20260505123045 53 252 0.0 1.7 0.00 0.00 0.00 90 1013.1
20260505121528 53 0 0.0 0.0 0.00 0.00 0.00 90 1013.1
20260505120034 53 0 0.0 0.0 0.00 0.00 0.00 90 1013.1
20260505114530 53 0 0.0 0.9 0.00 0.00 0.00 89 1013.0
20260505113032 53 0 0.0 1.7 0.00 0.00 0.00 89 1013.0
20260505111534 53 266 0.0 1.7 0.00 0.00 0.00 89 1013.0